Location: Caltech
(34.1382°N, 118.1253°W)
Time: 23:33:24
(UTC-07:00)

Cosmos 44 Rocket - Visible Passes

Search period start: 01 August 2014 00:00
Search period end: 11 August 2014 00:00
Orbit: 652 x 742 km, 65.1° (Epoch: 01 August)

Date Brightness Start Highest point End Pass type
(mag) Time Alt. Az. Time Alt. Az. Time Alt. Az.
01 Aug 4.4 22:01:29 10° N 22:05:39 30° NE 22:05:39 30° NE visible
01 Aug 5.7 23:43:13 10° NW 23:44:24 16° WNW 23:44:24 16° WNW visible
02 Aug 5.4 21:03:54 10° NNE 21:06:00 13° NE 21:08:04 10° ENE visible
02 Aug 4.1 22:43:21 10° NNW 22:46:50 48° NW 22:46:50 48° NW visible
03 Aug 3.8 21:44:21 10° NNW 21:48:50 40° ENE 21:49:19 39° ENE visible
03 Aug 5.8 23:26:53 10° WNW 23:28:04 14° W 23:28:04 14° W visible
04 Aug 5.1 20:46:14 10° N 20:49:17 17° NE 20:51:50 12° E visible
04 Aug 3.9 22:26:33 10° NW 22:30:36 48° W 22:30:36 48° W visible
05 Aug 3.4 21:27:18 10° NNW 21:31:59 56° ENE 21:33:11 42° ESE visible
05 Aug 5.9 23:11:00 10° W 23:11:56 12° W 23:11:56 12° W visible
06 Aug 4.7 20:28:50 10° N 20:32:31 22° NE 20:35:49 11° E visible
06 Aug 4.2 22:09:50 10° NW 22:14:09 36° WSW 22:14:35 35° SW visible
07 Aug 3.1 21:10:20 10° NNW 21:15:05 78° ENE 21:17:17 31° SE visible
08 Aug 4.3 20:11:36 10° N 20:15:44 29° NE 20:19:47 10° ESE visible
08 Aug 4.9 21:53:15 10° NW 21:57:08 26° WSW 21:58:50 21° SW visible
09 Aug 3.3 20:53:26 10° NNW 20:58:09 76° WSW 21:01:42 17° SSE visible
10 Aug 5.5 21:36:53 10° WNW 21:40:06 19° WSW 21:43:18 10° SSW visible
